User: anonymous   Login
Location: Caltech
(34.1382°N, 118.1253°W)
Time: 22:09:47
(UTC-07:00)
Language:

SO-50 - Orbit

View from above orbital plane
View from above orbital plane
View from above satellite
View from above satellite

Ground track
Ground track

The orbit data is extracted from the following two-line orbital elements,

1 27607U 02058C   15142.81064076  .00000569  00000-0  10159-3 0  9991
2 27607 064.5555 276.2820 0080277 293.2396 066.0268 14.74718536667541
Epoch (UTC): 22 May 2015 19:27:19
Eccentricity: 0.0080277
inclination: 64.5555°
perigee height: 589 km
apogee height: 702 km
right ascension of ascending node: 276.2820°
argument of perigee: 293.2396°
revolutions per day: 14.74718536
mean anomaly at epoch: 66.0268°
orbit number at epoch: 66754

The dashed part of the orbit path shows where the satellite is in the earth's shadow,  

DLR